owner,sensor,date,latitude,longitude,vertical_datum,mass_concentration_of_oxygen_in_sea_water,qcFlag 
SCCF RECON,ioos:station:SCCF:16:1,2008-02-01T00:00:00Z,26.4345,-81.9647,2.776,7.21,1111122 
SCCF RECON,ioos:station:SCCF:16:1,2008-02-01T01:00:00Z,26.4345,-81.9647,2.728,7.2,1111122 
SCCF RECON,ioos:station:SCCF:16:1,2008-02-01T02:00:00Z,26.4345,-81.9647,2.621,7.2,1111122 
SCCF RECON,ioos:station:SCCF:16:1,2008-02-01T03:00:00Z,26.4345,-81.9647,2.555,7.16,1111122 
SCCF RECON,ioos:station:SCCF:16:1,2008-02-01T04:00:00Z,26.4345,-81.9647,2.448,7.01,1111122 
SCCF RECON,ioos:station:SCCF:16:1,2008-02-01T05:00:00Z,26.4345,-81.9647,2.343,6.86,1111122 
SCCF RECON,ioos:station:SCCF:16:1,2008-02-01T06:00:00Z,26.4345,-81.9647,2.193,6.86,1111122 
SCCF RECON,ioos:station:SCCF:16:1,2008-02-01T07:00:00Z,26.4345,-81.9647,2.077,6.87,1111122 
SCCF RECON,ioos:station:SCCF:16:1,2008-02-01T08:00:00Z,26.4345,-81.9647,2.107,6.92,1111122 
SCCF RECON,ioos:station:SCCF:16:1,2008-02-01T09:00:00Z,26.4345,-81.9647,2.211,6.93,1111122 
SCCF RECON,ioos:station:SCCF:16:1,2008-02-01T10:00:00Z,26.4345,-81.9647,2.292,6.9,1111122 
SCCF RECON,ioos:station:SCCF:16:1,2008-02-01T11:00:00Z,26.4345,-81.9647,2.321,6.9,1111122 
SCCF RECON,ioos:station:SCCF:16:1,2008-02-01T12:00:00Z,26.4345,-81.9647,2.409,6.89,1111122 
SCCF RECON,ioos:station:SCCF:16:1,2008-02-01T13:00:00Z,26.4345,-81.9647,2.478,6.87,1111122 
SCCF RECON,ioos:station:SCCF:16:1,2008-02-01T14:00:00Z,26.4345,-81.9647,2.537,6.9,1111122 
SCCF RECON,ioos:station:SCCF:16:1,2008-02-01T15:00:00Z,26.4345,-81.9647,2.536,6.84,1111122 
SCCF RECON,ioos:station:SCCF:16:1,2008-02-01T16:00:00Z,26.4345,-81.9647,2.607,6.85,1111122 
SCCF RECON,ioos:station:SCCF:16:1,2008-02-01T17:00:00Z,26.4345,-81.9647,2.651,6.87,1111122 
SCCF RECON,ioos:station:SCCF:16:1,2008-02-01T18:00:00Z,26.4345,-81.9647,2.581,6.95,1111122 
SCCF RECON,ioos:station:SCCF:16:1,2008-02-01T19:00:00Z,26.4345,-81.9647,2.534,7.17,1111122 
SCCF RECON,ioos:station:SCCF:16:1,2008-02-01T20:00:00Z,26.4345,-81.9647,2.523,7.29,1111122 
SCCF RECON,ioos:station:SCCF:16:1,2008-02-01T21:00:00Z,26.4345,-81.9647,2.575,7.36,1111122 
SCCF RECON,ioos:station:SCCF:16:1,2008-02-01T22:00:00Z,26.4345,-81.9647,2.619,7.56,1111122 
SCCF RECON,ioos:station:SCCF:16:1,2008-02-01T23:00:00Z,26.4345,-81.9647,2.666,7.65,1111122 
SCCF RECON,ioos:station:SCCF:16:1,2008-02-02T00:00:00Z,26.4345,-81.9647,2.723,7.6,1111122 
SCCF RECON,ioos:station:SCCF:16:1,2008-02-02T01:00:00Z,26.4345,-81.9647,2.699,7.5,1111122 
SCCF RECON,ioos:station:SCCF:16:1,2008-02-02T02:00:00Z,26.4345,-81.9647,2.642,7.46,1111122 
SCCF RECON,ioos:station:SCCF:16:1,2008-02-02T03:00:00Z,26.4345,-81.9647,2.541,7.44,1111122 
SCCF RECON,ioos:station:SCCF:16:1,2008-02-02T04:00:00Z,26.4345,-81.9647,2.426,7.27,1111122 
SCCF RECON,ioos:station:SCCF:16:1,2008-02-02T05:00:00Z,26.4345,-81.9647,2.325,7.0,1111122 
SCCF RECON,ioos:station:SCCF:16:1,2008-02-02T06:00:00Z,26.4345,-81.9647,2.209,6.87,1111122 
SCCF RECON,ioos:station:SCCF:16:1,2008-02-02T07:00:00Z,26.4345,-81.9647,2.077,6.92,1111122 
SCCF RECON,ioos:station:SCCF:16:1,2008-02-02T08:00:00Z,26.4345,-81.9647,1.968,6.92,1111122 
SCCF RECON,ioos:station:SCCF:16:1,2008-02-02T09:00:00Z,26.4345,-81.9647,1.952,7.02,1111122 
SCCF RECON,ioos:station:SCCF:16:1,2008-02-02T10:00:00Z,26.4345,-81.9647,2.034,6.89,1111122 
SCCF RECON,ioos:station:SCCF:16:1,2008-02-02T11:00:00Z,26.4345,-81.9647,2.147,6.94,1111122 
SCCF RECON,ioos:station:SCCF:16:1,2008-02-02T12:00:00Z,26.4345,-81.9647,2.222,6.9,1111122 
SCCF RECON,ioos:station:SCCF:16:1,2008-02-02T13:00:00Z,26.4345,-81.9647,2.298,6.88,1111122 
SCCF RECON,ioos:station:SCCF:16:1,2008-02-02T14:00:00Z,26.4345,-81.9647,2.406,6.99,1111122 
SCCF RECON,ioos:station:SCCF:16:1,2008-02-02T15:00:00Z,26.4345,-81.9647,2.507,6.91,1111122 
SCCF RECON,ioos:station:SCCF:16:1,2008-02-02T16:00:00Z,26.4345,-81.9647,2.554,6.95,1111122 
SCCF RECON,ioos:station:SCCF:16:1,2008-02-02T17:00:00Z,26.4345,-81.9647,2.547,7.01,1111122 
SCCF RECON,ioos:station:SCCF:16:1,2008-02-02T18:00:00Z,26.4345,-81.9647,2.528,7.1,1111122 
SCCF RECON,ioos:station:SCCF:16:1,2008-02-02T19:00:00Z,26.4345,-81.9647,2.467,7.17,1111122 
SCCF RECON,ioos:station:SCCF:16:1,2008-02-03T00:00:00Z,26.4345,-81.9647,2.646,7.87,1111122 
SCCF RECON,ioos:station:SCCF:16:1,2008-02-03T01:00:00Z,26.4345,-81.9647,2.69,7.83,1111122 
SCCF RECON,ioos:station:SCCF:16:1,2008-02-03T02:00:00Z,26.4345,-81.9647,2.675,7.73,1111122 
SCCF RECON,ioos:station:SCCF:16:1,2008-02-03T03:00:00Z,26.4345,-81.9647,2.63,7.7,1111122 
SCCF RECON,ioos:station:SCCF:16:1,2008-02-03T04:00:00Z,26.4345,-81.9647,2.533,7.62,1111122 
SCCF RECON,ioos:station:SCCF:16:1,2008-02-03T05:00:00Z,26.4345,-81.9647,2.372,7.45,1111122 
SCCF RECON,ioos:station:SCCF:16:1,2008-02-03T06:00:00Z,26.4345,-81.9647,2.212,7.05,1111122 
SCCF RECON,ioos:station:SCCF:16:1,2008-02-03T07:00:00Z,26.4345,-81.9647,2.024,7.03,1111122 
SCCF RECON,ioos:station:SCCF:16:1,2008-02-03T08:00:00Z,26.4345,-81.9647,1.886,7.13,1111122 
SCCF RECON,ioos:station:SCCF:16:1,2008-02-03T09:00:00Z,26.4345,-81.9647,1.818,7.0,1111122 
SCCF RECON,ioos:station:SCCF:16:1,2008-02-03T10:00:00Z,26.4345,-81.9647,1.856,6.87,1111122 
SCCF RECON,ioos:station:SCCF:16:1,2008-02-03T11:00:00Z,26.4345,-81.9647,1.993,6.81,1111122 
SCCF RECON,ioos:station:SCCF:16:1,2008-02-03T12:00:00Z,26.4345,-81.9647,2.12,6.66,1111122 
SCCF RECON,ioos:station:SCCF:16:1,2008-02-03T13:00:00Z,26.4345,-81.9647,2.243,6.86,1111122 
SCCF RECON,ioos:station:SCCF:16:1,2008-02-03T14:00:00Z,26.4345,-81.9647,2.361,7.03,1111122 
SCCF RECON,ioos:station:SCCF:16:1,2008-02-03T15:00:00Z,26.4345,-81.9647,2.481,6.99,1111122 
SCCF RECON,ioos:station:SCCF:16:1,2008-02-03T16:00:00Z,26.4345,-81.9647,2.543,7.23,1111122 
SCCF RECON,ioos:station:SCCF:16:1,2008-02-03T17:00:00Z,26.4345,-81.9647,2.532,7.58,1111122 
SCCF RECON,ioos:station:SCCF:16:1,2008-02-03T18:00:00Z,26.4345,-81.9647,2.519,7.34,1111122 
SCCF RECON,ioos:station:SCCF:16:1,2008-02-03T19:00:00Z,26.4345,-81.9647,2.483,7.25,1111122 
SCCF RECON,ioos:station:SCCF:16:1,2008-02-03T20:00:00Z,26.4345,-81.9647,2.436,7.29,1111122 
SCCF RECON,ioos:station:SCCF:16:1,2008-02-03T21:00:00Z,26.4345,-81.9647,2.426,7.35,1111122 
SCCF RECON,ioos:station:SCCF:16:1,2008-02-03T22:00:00Z,26.4345,-81.9647,2.491,7.44,1111122 
SCCF RECON,ioos:station:SCCF:16:1,2008-02-03T23:00:00Z,26.4345,-81.9647,2.551,7.58,1111122 
SCCF RECON,ioos:station:SCCF:16:1,2008-02-04T00:00:00Z,26.4345,-81.9647,2.611,7.66,1111122 
SCCF RECON,ioos:station:SCCF:16:1,2008-02-04T01:00:00Z,26.4345,-81.9647,2.667,7.57,1111122 
SCCF RECON,ioos:station:SCCF:16:1,2008-02-04T02:00:00Z,26.4345,-81.9647,2.686,7.62,1111122 
SCCF RECON,ioos:station:SCCF:16:1,2008-02-04T03:00:00Z,26.4345,-81.9647,2.689,7.54,1111122 
SCCF RECON,ioos:station:SCCF:16:1,2008-02-04T04:00:00Z,26.4345,-81.9647,2.615,7.48,1111122 
SCCF RECON,ioos:station:SCCF:16:1,2008-02-04T05:00:00Z,26.4345,-81.9647,2.5,7.49,1111122 
SCCF RECON,ioos:station:SCCF:16:1,2008-02-04T06:00:00Z,26.4345,-81.9647,2.325,7.3,1111122 
SCCF RECON,ioos:station:SCCF:16:1,2008-02-04T07:00:00Z,26.4345,-81.9647,2.145,7.2,1111122 
SCCF RECON,ioos:station:SCCF:16:1,2008-02-04T08:00:00Z,26.4345,-81.9647,1.976,7.05,1111122 
SCCF RECON,ioos:station:SCCF:16:1,2008-02-04T09:00:00Z,26.4345,-81.9647,1.802,7.03,1111122 
SCCF RECON,ioos:station:SCCF:16:1,2008-02-04T10:00:00Z,26.4345,-81.9647,1.715,6.78,1111122 
SCCF RECON,ioos:station:SCCF:16:1,2008-02-04T11:00:00Z,26.4345,-81.9647,1.802,6.83,1111122 
SCCF RECON,ioos:station:SCCF:16:1,2008-02-04T12:00:00Z,26.4345,-81.9647,2.005,6.71,1111122 
SCCF RECON,ioos:station:SCCF:16:1,2008-02-04T13:00:00Z,26.4345,-81.9647,2.184,6.66,1111122 
SCCF RECON,ioos:station:SCCF:16:1,2008-02-04T14:00:00Z,26.4345,-81.9647,2.309,6.8,1111122 
SCCF RECON,ioos:station:SCCF:16:1,2008-02-04T15:00:00Z,26.4345,-81.9647,2.444,7.08,1111122 
SCCF RECON,ioos:station:SCCF:16:1,2008-02-04T16:00:00Z,26.4345,-81.9647,2.545,7.29,1111122 
SCCF RECON,ioos:station:SCCF:16:1,2008-02-04T17:00:00Z,26.4345,-81.9647,2.561,7.34,1111122 
SCCF RECON,ioos:station:SCCF:16:1,2008-02-04T18:00:00Z,26.4345,-81.9647,2.54,7.38,1111122 
SCCF RECON,ioos:station:SCCF:16:1,2008-02-04T19:00:00Z,26.4345,-81.9647,2.488,7.36,1111122 
SCCF RECON,ioos:station:SCCF:16:1,2008-02-04T20:00:00Z,26.4345,-81.9647,2.45,7.37,1111122 
SCCF RECON,ioos:station:SCCF:16:1,2008-02-04T21:00:00Z,26.4345,-81.9647,2.437,7.45,1111122 
SCCF RECON,ioos:station:SCCF:16:1,2008-02-04T22:00:00Z,26.4345,-81.9647,2.447,7.4,1111122 
SCCF RECON,ioos:station:SCCF:16:1,2008-02-04T23:00:00Z,26.4345,-81.9647,2.529,7.4,1111122 
SCCF RECON,ioos:station:SCCF:16:1,2008-02-05T00:00:00Z,26.4345,-81.9647,2.627,7.41,1111122 
SCCF RECON,ioos:station:SCCF:16:1,2008-02-05T01:00:00Z,26.4345,-81.9647,2.731,7.36,1111122 
SCCF RECON,ioos:station:SCCF:16:1,2008-02-05T02:00:00Z,26.4345,-81.9647,2.794,7.34,1111122 
SCCF RECON,ioos:station:SCCF:16:1,2008-02-05T03:00:00Z,26.4345,-81.9647,2.805,7.3,1111122 
SCCF RECON,ioos:station:SCCF:16:1,2008-02-05T04:00:00Z,26.4345,-81.9647,2.799,7.3,1111122 
SCCF RECON,ioos:station:SCCF:16:1,2008-02-05T05:00:00Z,26.4345,-81.9647,2.707,7.27,1111122 
SCCF RECON,ioos:station:SCCF:16:1,2008-02-05T06:00:00Z,26.4345,-81.9647,2.522,7.24,1111122 
SCCF RECON,ioos:station:SCCF:16:1,2008-02-05T07:00:00Z,26.4345,-81.9647,2.314,7.09,1111122 
SCCF RECON,ioos:station:SCCF:16:1,2008-02-05T08:00:00Z,26.4345,-81.9647,2.129,7.03,1111122 
SCCF RECON,ioos:station:SCCF:16:1,2008-02-05T09:00:00Z,26.4345,-81.9647,1.923,6.95,1111122 
SCCF RECON,ioos:station:SCCF:16:1,2008-02-05T10:00:00Z,26.4345,-81.9647,1.757,6.9,1111122 
SCCF RECON,ioos:station:SCCF:16:1,2008-02-05T11:00:00Z,26.4345,-81.9647,1.744,6.58,1111122 
SCCF RECON,ioos:station:SCCF:16:1,2008-02-05T12:00:00Z,26.4345,-81.9647,1.901,6.56,1111122 
SCCF RECON,ioos:station:SCCF:16:1,2008-02-05T13:00:00Z,26.4345,-81.9647,2.112,6.8,1111122 
SCCF RECON,ioos:station:SCCF:16:1,2008-02-05T14:00:00Z,26.4345,-81.9647,2.276,6.74,1111122 
SCCF RECON,ioos:station:SCCF:16:1,2008-02-05T15:00:00Z,26.4345,-81.9647,2.399,6.8,1111122 
SCCF RECON,ioos:station:SCCF:16:1,2008-02-05T16:00:00Z,26.4345,-81.9647,2.526,6.95,1111122 
SCCF RECON,ioos:station:SCCF:16:1,2008-02-05T17:00:00Z,26.4345,-81.9647,2.595,7.04,1111122 
SCCF RECON,ioos:station:SCCF:16:1,2008-02-05T18:00:00Z,26.4345,-81.9647,2.558,7.1,1111122 
SCCF RECON,ioos:station:SCCF:16:1,2008-02-05T19:00:00Z,26.4345,-81.9647,2.502,7.12,1111122 
SCCF RECON,ioos:station:SCCF:16:1,2008-02-05T20:00:00Z,26.4345,-81.9647,2.457,7.14,1111122 
SCCF RECON,ioos:station:SCCF:16:1,2008-02-05T21:00:00Z,26.4345,-81.9647,2.4,7.2,1111122 
SCCF RECON,ioos:station:SCCF:16:1,2008-02-05T22:00:00Z,26.4345,-81.9647,2.361,7.23,1111122 
SCCF RECON,ioos:station:SCCF:16:1,2008-02-05T23:00:00Z,26.4345,-81.9647,2.4,7.17,1111122 
SCCF RECON,ioos:station:SCCF:16:1,2008-02-06T00:00:00Z,26.4345,-81.9647,2.486,7.17,1111122 
SCCF RECON,ioos:station:SCCF:16:1,2008-02-06T01:00:00Z,26.4345,-81.9647,2.636,7.15,1111122 
SCCF RECON,ioos:station:SCCF:16:1,2008-02-06T02:00:00Z,26.4345,-81.9647,2.764,7.18,1111122 
SCCF RECON,ioos:station:SCCF:16:1,2008-02-06T03:00:00Z,26.4345,-81.9647,2.83,7.24,1111122 
SCCF RECON,ioos:station:SCCF:16:1,2008-02-06T04:00:00Z,26.4345,-81.9647,2.869,7.25,1111122 
SCCF RECON,ioos:station:SCCF:16:1,2008-02-06T05:00:00Z,26.4345,-81.9647,2.843,7.07,1111122 
SCCF RECON,ioos:station:SCCF:16:1,2008-02-06T06:00:00Z,26.4345,-81.9647,2.726,6.92,1111122 
SCCF RECON,ioos:station:SCCF:16:1,2008-02-06T07:00:00Z,26.4345,-81.9647,2.51,6.87,1111122 
SCCF RECON,ioos:station:SCCF:16:1,2008-02-06T08:00:00Z,26.4345,-81.9647,2.305,6.96,1111122 
SCCF RECON,ioos:station:SCCF:16:1,2008-02-06T09:00:00Z,26.4345,-81.9647,2.119,6.82,1111122 
SCCF RECON,ioos:station:SCCF:16:1,2008-02-06T10:00:00Z,26.4345,-81.9647,1.923,6.64,1111122 
SCCF RECON,ioos:station:SCCF:16:1,2008-02-06T11:00:00Z,26.4345,-81.9647,1.816,6.64,1111122 
SCCF RECON,ioos:station:SCCF:16:1,2008-02-06T12:00:00Z,26.4345,-81.9647,1.884,6.41,1111122 
SCCF RECON,ioos:station:SCCF:16:1,2008-02-06T13:00:00Z,26.4345,-81.9647,2.092,6.42,1111122 
SCCF RECON,ioos:station:SCCF:16:1,2008-02-06T14:00:00Z,26.4345,-81.9647,2.296,6.47,1111122 
SCCF RECON,ioos:station:SCCF:16:1,2008-02-06T15:00:00Z,26.4345,-81.9647,2.489,6.58,1111122 
SCCF RECON,ioos:station:SCCF:16:1,2008-02-06T16:00:00Z,26.4345,-81.9647,2.643,6.75,1111122 
SCCF RECON,ioos:station:SCCF:16:1,2008-02-06T17:00:00Z,26.4345,-81.9647,2.719,6.8,1111122 
SCCF RECON,ioos:station:SCCF:16:1,2008-02-06T18:00:00Z,26.4345,-81.9647,2.727,6.81,1111122 
SCCF RECON,ioos:station:SCCF:16:1,2008-02-06T19:00:00Z,26.4345,-81.9647,2.628,6.84,1111122 
SCCF RECON,ioos:station:SCCF:16:1,2008-02-06T20:00:00Z,26.4345,-81.9647,2.484,6.8,1111122 
SCCF RECON,ioos:station:SCCF:16:1,2008-02-06T21:00:00Z,26.4345,-81.9647,2.39,6.79,1111122 
SCCF RECON,ioos:station:SCCF:16:1,2008-02-06T22:00:00Z,26.4345,-81.9647,2.323,6.89,1111122 
SCCF RECON,ioos:station:SCCF:16:1,2008-02-06T23:00:00Z,26.4345,-81.9647,2.296,6.9,1111122 
SCCF RECON,ioos:station:SCCF:16:1,2008-02-07T00:00:00Z,26.4345,-81.9647,2.386,6.85,1111122 
SCCF RECON,ioos:station:SCCF:16:1,2008-02-07T01:00:00Z,26.4345,-81.9647,2.512,6.81,1111122 
SCCF RECON,ioos:station:SCCF:16:1,2008-02-07T02:00:00Z,26.4345,-81.9647,2.642,6.83,1111122 
SCCF RECON,ioos:station:SCCF:16:1,2008-02-07T03:00:00Z,26.4345,-81.9647,2.727,6.74,1111122 
SCCF RECON,ioos:station:SCCF:16:1,2008-02-07T04:00:00Z,26.4345,-81.9647,2.81,6.72,1111122 
SCCF RECON,ioos:station:SCCF:16:1,2008-02-07T05:00:00Z,26.4345,-81.9647,2.837,6.69,1111122 
SCCF RECON,ioos:station:SCCF:16:1,2008-02-07T06:00:00Z,26.4345,-81.9647,2.754,6.74,1111122 
SCCF RECON,ioos:station:SCCF:16:1,2008-02-07T07:00:00Z,26.4345,-81.9647,2.603,6.69,1111122 
SCCF RECON,ioos:station:SCCF:16:1,2008-02-07T08:00:00Z,26.4345,-81.9647,2.372,6.55,1111122 
SCCF RECON,ioos:station:SCCF:16:1,2008-02-07T09:00:00Z,26.4345,-81.9647,2.158,6.53,1111122 
SCCF RECON,ioos:station:SCCF:16:1,2008-02-07T10:00:00Z,26.4345,-81.9647,1.967,6.43,1111122 
SCCF RECON,ioos:station:SCCF:16:1,2008-02-07T11:00:00Z,26.4345,-81.9647,1.794,6.42,1111122 
SCCF RECON,ioos:station:SCCF:16:1,2008-02-07T12:00:00Z,26.4345,-81.9647,1.737,6.34,1111122 
SCCF RECON,ioos:station:SCCF:16:1,2008-02-07T13:00:00Z,26.4345,-81.9647,1.883,6.26,1111122 
SCCF RECON,ioos:station:SCCF:16:1,2008-02-07T14:00:00Z,26.4345,-81.9647,2.135,6.49,1111122 
SCCF RECON,ioos:station:SCCF:16:1,2008-02-07T15:00:00Z,26.4345,-81.9647,2.337,6.39,1111122 
SCCF RECON,ioos:station:SCCF:16:1,2008-02-07T17:00:00Z,26.4345,-81.9647,2.621,6.53,1111122 
SCCF RECON,ioos:station:SCCF:16:1,2008-02-07T18:00:00Z,26.4345,-81.9647,2.666,6.66,1111122 
SCCF RECON,ioos:station:SCCF:16:1,2008-02-07T19:00:00Z,26.4345,-81.9647,2.59,6.72,1111122 
SCCF RECON,ioos:station:SCCF:16:1,2008-02-07T20:00:00Z,26.4345,-81.9647,2.485,6.75,1111122 
SCCF RECON,ioos:station:SCCF:16:1,2008-02-07T21:00:00Z,26.4345,-81.9647,2.366,6.8,1111122 
SCCF RECON,ioos:station:SCCF:16:1,2008-02-07T22:00:00Z,26.4345,-81.9647,2.301,6.86,1111122 
SCCF RECON,ioos:station:SCCF:16:1,2008-02-07T23:00:00Z,26.4345,-81.9647,2.216,6.8,1111122 
SCCF RECON,ioos:station:SCCF:16:1,2008-02-08T00:00:00Z,26.4345,-81.9647,2.205,6.66,1111122 
SCCF RECON,ioos:station:SCCF:16:1,2008-02-08T01:00:00Z,26.4345,-81.9647,2.325,6.64,1111122 
SCCF RECON,ioos:station:SCCF:16:1,2008-02-08T02:00:00Z,26.4345,-81.9647,2.476,6.63,1111122 
SCCF RECON,ioos:station:SCCF:16:1,2008-02-08T03:00:00Z,26.4345,-81.9647,2.674,6.68,1111122 
SCCF RECON,ioos:station:SCCF:16:1,2008-02-08T04:00:00Z,26.4345,-81.9647,2.747,6.7,1111122 
SCCF RECON,ioos:station:SCCF:16:1,2008-02-08T05:00:00Z,26.4345,-81.9647,2.823,6.57,1111122 
SCCF RECON,ioos:station:SCCF:16:1,2008-02-08T06:00:00Z,26.4345,-81.9647,2.783,6.48,1111122 
SCCF RECON,ioos:station:SCCF:16:1,2008-02-08T07:00:00Z,26.4345,-81.9647,2.678,6.37,1111122 
SCCF RECON,ioos:station:SCCF:16:1,2008-02-08T08:00:00Z,26.4345,-81.9647,2.521,6.29,1111122 
SCCF RECON,ioos:station:SCCF:16:1,2008-02-08T09:00:00Z,26.4345,-81.9647,2.295,6.37,1111122 
SCCF RECON,ioos:station:SCCF:16:1,2008-02-08T10:00:00Z,26.4345,-81.9647,2.083,6.34,1111122 
SCCF RECON,ioos:station:SCCF:16:1,2008-02-08T11:00:00Z,26.4345,-81.9647,1.902,6.23,1111122 
SCCF RECON,ioos:station:SCCF:16:1,2008-02-08T12:00:00Z,26.4345,-81.9647,1.771,6.23,1111122 
SCCF RECON,ioos:station:SCCF:16:1,2008-02-08T13:00:00Z,26.4345,-81.9647,1.812,6.14,1111122 
SCCF RECON,ioos:station:SCCF:16:1,2008-02-08T14:00:00Z,26.4345,-81.9647,2.038,6.32,1111122 
SCCF RECON,ioos:station:SCCF:16:1,2008-02-08T15:00:00Z,26.4345,-81.9647,2.305,6.22,1111122 
SCCF RECON,ioos:station:SCCF:16:1,2008-02-08T16:00:00Z,26.4345,-81.9647,2.496,6.25,1111122 
SCCF RECON,ioos:station:SCCF:16:1,2008-02-08T17:00:00Z,26.4345,-81.9647,2.575,6.35,1111122 
SCCF RECON,ioos:station:SCCF:16:1,2008-02-08T18:00:00Z,26.4345,-81.9647,2.61,6.49,1111122 
SCCF RECON,ioos:station:SCCF:16:1,2008-02-08T19:00:00Z,26.4345,-81.9647,2.623,6.59,1111122 
SCCF RECON,ioos:station:SCCF:16:1,2008-02-08T20:00:00Z,26.4345,-81.9647,2.549,6.65,1111122 
SCCF RECON,ioos:station:SCCF:16:1,2008-02-08T21:00:00Z,26.4345,-81.9647,2.415,6.61,1111122 
SCCF RECON,ioos:station:SCCF:16:1,2008-02-08T22:00:00Z,26.4345,-81.9647,2.294,6.6,1111122 
SCCF RECON,ioos:station:SCCF:16:1,2008-02-08T23:00:00Z,26.4345,-81.9647,2.198,6.47,1111122 
SCCF RECON,ioos:station:SCCF:16:1,2008-02-09T00:00:00Z,26.4345,-81.9647,2.127,6.34,1111122 
SCCF RECON,ioos:station:SCCF:16:1,2008-02-09T01:00:00Z,26.4345,-81.9647,2.147,6.32,1111122 
SCCF RECON,ioos:station:SCCF:16:1,2008-02-09T02:00:00Z,26.4345,-81.9647,2.326,6.27,1111122 
SCCF RECON,ioos:station:SCCF:16:1,2008-02-09T03:00:00Z,26.4345,-81.9647,2.52,6.36,1111122 
SCCF RECON,ioos:station:SCCF:16:1,2008-02-09T04:00:00Z,26.4345,-81.9647,2.693,6.41,1111122 
SCCF RECON,ioos:station:SCCF:16:1,2008-02-09T05:00:00Z,26.4345,-81.9647,2.774,6.46,1111122 
SCCF RECON,ioos:station:SCCF:16:1,2008-02-09T06:00:00Z,26.4345,-81.9647,2.8,6.17,1111122 
SCCF RECON,ioos:station:SCCF:16:1,2008-02-09T07:00:00Z,26.4345,-81.9647,2.752,6.18,1111122 
SCCF RECON,ioos:station:SCCF:16:1,2008-02-09T08:00:00Z,26.4345,-81.9647,2.629,6.17,1111122 
SCCF RECON,ioos:station:SCCF:16:1,2008-02-09T09:00:00Z,26.4345,-81.9647,2.413,6.12,1111122 
SCCF RECON,ioos:station:SCCF:16:1,2008-02-09T10:00:00Z,26.4345,-81.9647,2.231,6.14,1111122 
SCCF RECON,ioos:station:SCCF:16:1,2008-02-09T11:00:00Z,26.4345,-81.9647,2.054,6.11,1111122 
SCCF RECON,ioos:station:SCCF:16:1,2008-02-09T12:00:00Z,26.4345,-81.9647,1.886,5.95,1111122 
SCCF RECON,ioos:station:SCCF:16:1,2008-02-09T13:00:00Z,26.4345,-81.9647,1.807,5.94,1111122 
SCCF RECON,ioos:station:SCCF:16:1,2008-02-09T14:00:00Z,26.4345,-81.9647,1.901,5.96,1111122 
SCCF RECON,ioos:station:SCCF:16:1,2008-02-09T15:00:00Z,26.4345,-81.9647,2.152,5.96,1111122 
SCCF RECON,ioos:station:SCCF:16:1,2008-02-09T16:00:00Z,26.4345,-81.9647,2.348,5.98,1111122 
SCCF RECON,ioos:station:SCCF:16:1,2008-02-09T17:00:00Z,26.4345,-81.9647,2.494,6.04,1111122 
SCCF RECON,ioos:station:SCCF:16:1,2008-02-09T18:00:00Z,26.4345,-81.9647,2.571,6.3,1111122 
SCCF RECON,ioos:station:SCCF:16:1,2008-02-09T19:00:00Z,26.4345,-81.9647,2.576,6.33,1111122 
SCCF RECON,ioos:station:SCCF:16:1,2008-02-09T20:00:00Z,26.4345,-81.9647,2.529,6.32,1111122 
SCCF RECON,ioos:station:SCCF:16:1,2008-02-09T21:00:00Z,26.4345,-81.9647,2.417,6.36,1111122 
SCCF RECON,ioos:station:SCCF:16:1,2008-02-09T22:00:00Z,26.4345,-81.9647,2.263,6.46,1111122 
SCCF RECON,ioos:station:SCCF:16:1,2008-02-09T23:00:00Z,26.4345,-81.9647,2.111,6.39,1111122 
SCCF RECON,ioos:station:SCCF:16:1,2008-02-10T00:00:00Z,26.4345,-81.9647,2.013,6.37,1111122 
SCCF RECON,ioos:station:SCCF:16:1,2008-02-10T01:00:00Z,26.4345,-81.9647,1.975,6.32,1111122 
SCCF RECON,ioos:station:SCCF:16:1,2008-02-10T02:00:00Z,26.4345,-81.9647,2.048,6.04,1111122 
SCCF RECON,ioos:station:SCCF:16:1,2008-02-10T03:00:00Z,26.4345,-81.9647,2.241,6.17,1111122 
SCCF RECON,ioos:station:SCCF:16:1,2008-02-10T04:00:00Z,26.4345,-81.9647,2.444,6.25,1111122 
SCCF RECON,ioos:station:SCCF:16:1,2008-02-10T05:00:00Z,26.4345,-81.9647,2.57,6.39,1111122 
SCCF RECON,ioos:station:SCCF:16:1,2008-02-10T06:00:00Z,26.4345,-81.9647,2.638,6.32,1111122 
SCCF RECON,ioos:station:SCCF:16:1,2008-02-10T07:00:00Z,26.4345,-81.9647,2.654,6.39,1111122 
SCCF RECON,ioos:station:SCCF:16:1,2008-02-10T08:00:00Z,26.4345,-81.9647,2.585,6.24,1111122 
SCCF RECON,ioos:station:SCCF:16:1,2008-02-10T09:00:00Z,26.4345,-81.9647,2.466,6.19,1111122 
SCCF RECON,ioos:station:SCCF:16:1,2008-02-10T10:00:00Z,26.4345,-81.9647,2.301,6.13,1111122 
SCCF RECON,ioos:station:SCCF:16:1,2008-02-10T11:00:00Z,26.4345,-81.9647,2.182,6.1,1111122 
SCCF RECON,ioos:station:SCCF:16:1,2008-02-10T12:00:00Z,26.4345,-81.9647,2.029,5.99,1111122 
SCCF RECON,ioos:station:SCCF:16:1,2008-02-10T13:00:00Z,26.4345,-81.9647,1.914,5.86,1111122 
SCCF RECON,ioos:station:SCCF:16:1,2008-02-10T14:00:00Z,26.4345,-81.9647,1.862,6.1,1111122 
SCCF RECON,ioos:station:SCCF:16:1,2008-02-10T15:00:00Z,26.4345,-81.9647,1.977,6.09,1111122 
SCCF RECON,ioos:station:SCCF:16:1,2008-02-10T16:00:00Z,26.4345,-81.9647,2.197,6.19,1111122 
SCCF RECON,ioos:station:SCCF:16:1,2008-02-10T17:00:00Z,26.4345,-81.9647,2.369,6.31,1111122 
SCCF RECON,ioos:station:SCCF:16:1,2008-02-10T18:00:00Z,26.4345,-81.9647,2.507,6.63,1111122 
SCCF RECON,ioos:station:SCCF:16:1,2008-02-10T19:00:00Z,26.4345,-81.9647,2.543,6.65,1111122 
SCCF RECON,ioos:station:SCCF:16:1,2008-02-10T20:00:00Z,26.4345,-81.9647,2.504,6.81,1111122 
SCCF RECON,ioos:station:SCCF:16:1,2008-02-10T21:00:00Z,26.4345,-81.9647,2.451,6.95,1111122 
SCCF RECON,ioos:station:SCCF:16:1,2008-02-10T22:00:00Z,26.4345,-81.9647,2.323,7.05,1111122 
SCCF RECON,ioos:station:SCCF:16:1,2008-02-10T23:00:00Z,26.4345,-81.9647,2.173,6.99,1111122 
SCCF RECON,ioos:station:SCCF:16:1,2008-02-11T00:00:00Z,26.4345,-81.9647,2.016,6.85,1111122 
SCCF RECON,ioos:station:SCCF:16:1,2008-02-11T01:00:00Z,26.4345,-81.9647,1.89,6.75,1111122 
SCCF RECON,ioos:station:SCCF:16:1,2008-02-11T02:00:00Z,26.4345,-81.9647,1.81,6.59,1111122 
SCCF RECON,ioos:station:SCCF:16:1,2008-02-11T03:00:00Z,26.4345,-81.9647,1.882,6.48,1111122 
SCCF RECON,ioos:station:SCCF:16:1,2008-02-11T04:00:00Z,26.4345,-81.9647,2.073,6.42,1111122 
SCCF RECON,ioos:station:SCCF:16:1,2008-02-11T05:00:00Z,26.4345,-81.9647,2.258,6.46,1111122 
SCCF RECON,ioos:station:SCCF:16:1,2008-02-11T06:00:00Z,26.4345,-81.9647,2.33,6.49,1111122 
SCCF RECON,ioos:station:SCCF:16:1,2008-02-11T07:00:00Z,26.4345,-81.9647,2.349,6.59,1111122 
SCCF RECON,ioos:station:SCCF:16:1,2008-02-11T08:00:00Z,26.4345,-81.9647,2.381,6.62,1111122 
SCCF RECON,ioos:station:SCCF:16:1,2008-02-11T09:00:00Z,26.4345,-81.9647,2.341,6.57,1111122 
SCCF RECON,ioos:station:SCCF:16:1,2008-02-11T10:00:00Z,26.4345,-81.9647,2.222,6.53,1111122 
SCCF RECON,ioos:station:SCCF:16:1,2008-02-11T11:00:00Z,26.4345,-81.9647,2.047,6.47,1111122 
SCCF RECON,ioos:station:SCCF:16:1,2008-02-11T12:00:00Z,26.4345,-81.9647,1.958,6.44,1111122 
SCCF RECON,ioos:station:SCCF:16:1,2008-02-11T13:00:00Z,26.4345,-81.9647,1.935,6.35,1111122 
SCCF RECON,ioos:station:SCCF:16:1,2008-02-11T14:00:00Z,26.4345,-81.9647,1.921,6.31,1111122 
SCCF RECON,ioos:station:SCCF:16:1,2008-02-11T15:00:00Z,26.4345,-81.9647,2.014,6.36,1111122 
SCCF RECON,ioos:station:SCCF:16:1,2008-02-11T16:00:00Z,26.4345,-81.9647,2.2,6.45,1111122 
SCCF RECON,ioos:station:SCCF:16:1,2008-02-11T17:00:00Z,26.4345,-81.9647,2.357,6.72,1111122 
SCCF RECON,ioos:station:SCCF:16:1,2008-02-11T18:00:00Z,26.4345,-81.9647,2.447,6.95,1111122 
SCCF RECON,ioos:station:SCCF:16:1,2008-02-11T19:00:00Z,26.4345,-81.9647,2.58,7.03,1111122 
SCCF RECON,ioos:station:SCCF:16:1,2008-02-11T20:00:00Z,26.4345,-81.9647,2.642,7.07,1111122 
SCCF RECON,ioos:station:SCCF:16:1,2008-02-11T21:00:00Z,26.4345,-81.9647,2.613,7.12,1111122 
SCCF RECON,ioos:station:SCCF:16:1,2008-02-11T22:00:00Z,26.4345,-81.9647,2.532,7.18,1111122 
SCCF RECON,ioos:station:SCCF:16:1,2008-02-11T23:00:00Z,26.4345,-81.9647,2.402,7.14,1111122 
SCCF RECON,ioos:station:SCCF:16:1,2008-02-12T00:00:00Z,26.4345,-81.9647,2.223,7.14,1111122 